agroserver.ru alexa rank chart, agroserver.ru alexa rank daily changes

agroserver.ru alexa rank chart, agroserver.ru alexa rank daily changes

agroserver.ru
Actual rank:
24 325

RANK HISTORY

Date Rank Diff
2017/02/22 24 325 -53
2017/02/21 24 378 +21
2017/02/20 24 357 -100
2017/02/19 24 457 +78
2017/02/18 24 379 -37
2017/02/17 24 416 -128
2017/02/16 24 544 -407
2017/02/15 24 951 -300
2017/02/14 25 251 +44
2017/02/13 25 207 -165
2017/02/12 25 372 -131
2017/02/11 25 503 -174
2017/02/10 25 677 -360
2017/02/09 26 037 -540
2017/02/08 26 577 -631
2017/02/07 27 208 -153
2017/02/06 27 361 -104
2017/02/05 27 465 -320
2017/02/04 27 785 -571
2017/02/03 28 356 -261
2017/02/02 28 617 -541
2017/02/01 29 158 -499
2017/01/31 29 657 -273
2017/01/30 29 930 -230
2017/01/29 30 160 -376
2017/01/28 30 536 -106
2017/01/27 30 642 -108
2017/01/26 30 750 -381
2017/01/25 31 131 -187
2017/01/24 31 318 +57
2017/01/23 31 261 +164
2017/01/22 31 097 +65
2017/01/21 31 032 +45
2017/01/20 30 987 -357
2017/01/19 31 344 -418
2017/01/18 31 762 -140
2017/01/17 31 902 +236
2017/01/16 31 666 +126
2017/01/15 31 540 +370
2017/01/14 31 170 +53
2017/01/13 31 117 -315
2017/01/12 31 432 -218
2017/01/11 31 650 +240
2017/01/10 31 410 +652
2017/01/09 30 758 +311
2017/01/08 30 447 +368
2017/01/07 30 079 +439
2017/01/06 29 640 -90
2017/01/05 29 730 +116
2017/01/04 29 614 +727
2017/01/03 28 887 +839
2017/01/02 28 048 +474
2017/01/01 27 574 +337
2016/12/31 27 237 +284
2016/12/30 26 953 +153
2016/12/29 26 800 +11
2016/12/28 26 789 -197
2016/12/27 26 986 -138
2016/12/26 27 124 +551
2016/12/25 26 573 +134
2016/12/24 26 439

WIDGET FOR YOUR SITE

DOMAINS WITH THE NEAREST RANK

Domain Rank
gayshore.com 24 320
designtaxi.com 24 321
google.je 24 322
electronicshub.org 24 323
jpg4.space 24 324
agroserver.ru 24 325
dnevno.hr 24 326
qold-qame.com 24 327
torrentlocura.com 24 328
pausaparafeminices.com 24 329
couponzguru.com 24 330

DOMAINS WITH THE NEAREST RANK BY TLD .ru

Domain Rank
gamenet.ru 24 251
carambatv.ru 24 268
sendsay.ru 24 269
tvdate.ru 24 315
trendymen.ru 24 318
agroserver.ru 24 325
holodilnik.ru 24 332
sudact.ru 24 488
neznaka.ru 24 528
mirkosmosa.ru 24 550
rusfishing.ru 24 557